| time (UTC) | temp F | wind direction | speed knots | gust knots | rain 1hr in | rain 24hr in | rain mn in | humidity % | barometer mb |
| 20260507101038 | 59 | 33 | 2.6 | 7.8 | 0.00 | 0.05 | 0.00 | 83 | 1013.8 |
| 20260507100535 | 60 | 9 | 2.6 | 7.8 | 0.00 | 0.05 | 0.00 | 83 | 1014.0 |
| 20260507100047 | 60 | 294 | 1.7 | 7.8 | 0.00 | 0.05 | 0.00 | 84 | 1013.9 |
| 20260507095536 | 60 | 331 | 1.7 | 6.1 | 0.00 | 0.05 | 0.00 | 84 | 1013.7 |
| 20260507095034 | 60 | 272 | 1.7 | 9.6 | 0.00 | 0.05 | 0.00 | 84 | 1013.6 |
| 20260507094547 | 60 | 63 | 2.6 | 9.6 | 0.00 | 0.05 | 0.00 | 84 | 1013.7 |
| 20260507094037 | 60 | 331 | 4.3 | 8.7 | 0.00 | 0.05 | 0.00 | 85 | 1013.7 |
| 20260507093537 | 60 | 338 | 2.6 | 7.8 | 0.00 | 0.05 | 0.00 | 85 | 1013.5 |
| 20260507093055 | 60 | 86 | 1.7 | 7.8 | 0.00 | 0.05 | 0.00 | 86 | 1013.5 |
| 20260507092537 | 61 | 348 | 2.6 | 7.8 | 0.00 | 0.05 | 0.00 | 86 | 1013.8 |
| 20260507092036 | 61 | 300 | 2.6 | 7.8 | 0.00 | 0.05 | 0.00 | 86 | 1013.5 |
| 20260507091551 | 61 | 282 | 2.6 | 7.8 | 0.00 | 0.05 | 0.00 | 87 | 1013.3 |
| 20260507091035 | 61 | 9 | 1.7 | 7.0 | 0.00 | 0.05 | 0.00 | 87 | 1013.2 |
| 20260507090535 | 61 | 331 | 2.6 | 8.7 | 0.00 | 0.05 | 0.00 | 87 | 1013.3 |
| 20260507090046 | 61 | 343 | 2.6 | 8.7 | 0.00 | 0.05 | 0.00 | 87 | 1012.9 |
| 20260507085534 | 61 | 298 | 2.6 | 7.8 | 0.00 | 0.05 | 0.00 | 87 | 1013.1 |
| 20260507085042 | 61 | 343 | 1.7 | 8.7 | 0.00 | 0.05 | 0.00 | 87 | 1013.1 |
| 20260507084547 | 62 | 303 | 1.7 | 10.4 | 0.00 | 0.05 | 0.00 | 87 | 1013.1 |
| 20260507084034 | 62 | 267 | 3.5 | 10.4 | 0.00 | 0.05 | 0.00 | 86 | 1013.1 |
| 20260507083537 | 62 | 277 | 4.3 | 11.3 | 0.00 | 0.05 | 0.00 | 86 | 1013.0 |
| 20260507083049 | 62 | 294 | 3.5 | 11.3 | 0.00 | 0.05 | 0.00 | 86 | 1013.0 |
| 20260507082535 | 63 | 36 | 2.6 | 11.3 | 0.00 | 0.05 | 0.00 | 86 | 1013.2 |
| 20260507082038 | 63 | 331 | 3.5 | 13.9 | 0.00 | 0.05 | 0.00 | 86 | 1013.1 |
| 20260507081543 | 64 | 301 | 3.5 | 13.9 | 0.00 | 0.05 | 0.00 | 86 | 1013.1 |
| 20260507081037 | 65 | 301 | 2.6 | 8.7 | 0.00 | 0.05 | 0.00 | 87 | 1013.2 |
| 20260507080534 | 65 | 313 | 2.6 | 8.7 | 0.00 | 0.05 | 0.00 | 86 | 1013.2 |
| 20260507080050 | 66 | 57 | 3.5 | 8.7 | 0.00 | 0.05 | 0.00 | 87 | 1013.0 |
| 20260507075535 | 67 | 0 | 0.9 | 6.1 | 0.00 | 0.05 | 0.00 | 89 | 1012.8 |
| 20260507075038 | 67 | 316 | 3.5 | 6.1 | 0.00 | 0.05 | 0.00 | 89 | 1012.8 |
| 20260507074550 | 67 | 306 | 2.6 | 6.1 | 0.00 | 0.05 | 0.00 | 89 | 1012.6 |
| 20260507074038 | 67 | 286 | 0.9 | 5.2 | 0.00 | 0.05 | 0.00 | 89 | 1012.5 |
| 20260507073538 | 67 | 310 | 0.9 | 5.2 | 0.00 | 0.05 | 0.00 | 89 | 1012.4 |
| 20260507073049 | 67 | 0 | 0.9 | 5.2 | 0.00 | 0.05 | 0.00 | 89 | 1012.2 |
| 20260507072540 | 67 | 302 | 2.6 | 6.1 | 0.00 | 0.05 | 0.00 | 89 | 1011.9 |
| 20260507072040 | 67 | 304 | 1.7 | 6.1 | 0.00 | 0.05 | 0.00 | 89 | 1011.8 |
| 20260507071551 | 67 | 310 | 1.7 | 3.5 | 0.00 | 0.05 | 0.00 | 88 | 1011.8 |
| 20260507071037 | 67 | 288 | 0.9 | 3.5 | 0.00 | 0.05 | 0.00 | 88 | 1011.8 |
| 20260507070537 | 67 | 0 | 0.0 | 0.0 | 0.00 | 0.05 | 0.00 | 88 | 1011.6 |
| 20260507070046 | 67 | 0 | 0.0 | 0.0 | 0.00 | 0.05 | 0.00 | 87 | 1011.4 |
| 20260507065540 | 67 | 0 | 0.0 | 0.0 | 0.00 | 0.05 | 0.00 | 87 | 1011.5 |
| 20260507065037 | 67 | 0 | 0.0 | 0.0 | 0.00 | 0.05 | 0.00 | 87 | 1011.5 |
| 20260507064544 | 68 | 0 | 0.0 | 0.0 | 0.00 | 0.05 | 0.00 | 87 | 1011.4 |
| 20260507064035 | 68 | 0 | 0.0 | 0.0 | 0.00 | 0.05 | 0.00 | 87 | 1011.4 |
| 20260507063536 | 68 | 0 | 0.0 | 0.0 | 0.00 | 0.05 | 0.00 | 87 | 1011.3 |
| 20260507063048 | 68 | 0 | 0.0 | 0.0 | 0.00 | 0.05 | 0.00 | 86 | 1011.5 |
| 20260507062537 | 68 | 0 | 0.0 | 0.0 | 0.00 | 0.05 | 0.00 | 86 | 1011.5 |
| 20260507062036 | 68 | 0 | 0.0 | 0.0 | 0.00 | 0.05 | 0.00 | 86 | 1011.3 |
| 20260507061546 | 68 | 0 | 0.0 | 0.0 | 0.00 | 0.05 | 0.00 | 85 | 1011.4 |
| 20260507061036 | 69 | 0 | 0.0 | 0.0 | 0.00 | 0.05 | 0.00 | 85 | 1011.4 |
| 20260507060534 | 69 | 0 | 0.0 | 0.0 | 0.00 | 0.05 | 0.00 | 85 | 1011.5 |
| 20260507060050 | 69 | 0 | 0.0 | 0.0 | 0.00 | 0.05 | 0.00 | 85 | 1011.7 |
| 20260507055539 | 69 | 0 | 0.0 | 2.6 | 0.00 | 0.05 | 0.00 | 85 | 1011.8 |
| 20260507055037 | 69 | 0 | 0.0 | 2.6 | 0.00 | 0.05 | 0.00 | 84 | 1011.8 |
| 20260507054549 | 69 | 0 | 0.9 | 2.6 | 0.00 | 0.05 | 0.00 | 84 | 1011.8 |
| 20260507054037 | 69 | 0 | 0.0 | 1.7 | 0.00 | 0.05 | 0.00 | 84 | 1011.9 |
| 20260507053537 | 69 | 0 | 0.0 | 1.7 | 0.00 | 0.05 | 0.00 | 84 | 1012.0 |
| 20260507053053 | 69 | 0 | 0.0 | 3.5 | 0.00 | 0.05 | 0.00 | 84 | 1012.0 |
| 20260507052537 | 69 | 0 | 0.0 | 3.5 | 0.00 | 0.05 | 0.00 | 83 | 1012.1 |
| 20260507052035 | 69 | 277 | 0.9 | 3.5 | 0.00 | 0.05 | 0.00 | 83 | 1012.1 |
| 20260507051545 | 69 | 314 | 0.0 | 3.5 | 0.00 | 0.05 | 0.00 | 83 | 1012.1 |
| 20260507051039 | 69 | 315 | 0.0 | 3.5 | 0.00 | 0.05 | 0.00 | 83 | 1012.2 |
| 20260507050539 | 69 | 0 | 0.9 | 3.5 | 0.00 | 0.05 | 0.00 | 83 | 1012.1 |
| 20260507050051 | 69 | 284 | 0.0 | 3.5 | 0.00 | 0.05 | 0.00 | 83 | 1012.3 |
| 20260507045541 | 69 | 0 | 0.0 | 4.3 | 0.00 | 0.05 | 0.00 | 83 | 1012.3 |
| 20260507045034 | 69 | 0 | 0.0 | 4.3 | 0.00 | 0.05 | 0.00 | 83 | 1012.2 |
| 20260507044557 | 69 | 303 | 0.9 | 4.3 | 0.00 | 0.05 | 0.00 | 84 | 1012.3 |
| 20260507044037 | 69 | 331 | 0.0 | 4.3 | 0.00 | 0.05 | 0.00 | 84 | 1012.5 |
| 20260507043536 | 69 | 304 | 0.9 | 5.2 | 0.00 | 0.05 | 0.00 | 84 | 1012.5 |
| 20260507043045 | 68 | 94 | 0.0 | 5.2 | 0.00 | 0.05 | 0.00 | 84 | 1012.5 |
| 20260507042538 | 68 | 0 | 0.9 | 3.5 | 0.00 | 0.05 | 0.00 | 84 | 1012.5 |
| 20260507042037 | 68 | 0 | 0.0 | 3.5 | 0.00 | 0.05 | 0.00 | 84 | 1012.4 |
| 20260507041545 | 68 | 0 | 0.0 | 3.5 | 0.00 | 0.05 | 0.00 | 84 | 1012.6 |
| 20260507041034 | 68 | 321 | 0.0 | 3.5 | 0.00 | 0.05 | 0.00 | 85 | 1012.5 |
| 20260507040541 | 68 | 284 | 0.9 | 4.3 | 0.00 | 0.05 | 0.00 | 85 | 1012.6 |
| 20260507040048 | 68 | 355 | 0.9 | 4.3 | 0.00 | 0.05 | 0.00 | 85 | 1012.4 |
| 20260507035536 | 68 | 296 | 0.0 | 4.3 | 0.00 | 0.05 | 0.05 | 85 | 1012.2 |
| 20260507035036 | 68 | 0 | 0.9 | 4.3 | 0.00 | 0.05 | 0.05 | 86 | 1012.3 |
| 20260507034545 | 68 | 0 | 0.0 | 3.5 | 0.00 | 0.05 | 0.05 | 86 | 1012.2 |
| 20260507034036 | 67 | 323 | 0.0 | 5.2 | 0.00 | 0.05 | 0.05 | 86 | 1012.3 |
| 20260507033535 | 67 | 193 | 0.9 | 5.2 | 0.00 | 0.05 | 0.05 | 87 | 1012.4 |
| 20260507033043 | 67 | 253 | 0.0 | 3.5 | 0.00 | 0.05 | 0.05 | 87 | 1012.4 |
| 20260507032535 | 67 | 142 | 0.0 | 2.6 | 0.00 | 0.05 | 0.05 | 87 | 1012.2 |
| 20260507032038 | 66 | 57 | 0.0 | 2.6 | 0.00 | 0.05 | 0.05 | 88 | 1012.2 |
| 20260507031548 | 66 | 0 | 0.0 | 2.6 | 0.00 | 0.05 | 0.05 | 88 | 1012.0 |
| 20260507031038 | 66 | 0 | 0.9 | 2.6 | 0.00 | 0.05 | 0.05 | 88 | 1012.2 |
| 20260507030538 | 66 | 134 | 0.0 | 2.6 | 0.00 | 0.05 | 0.05 | 88 | 1012.2 |
| 20260507030054 | 66 | 0 | 0.0 | 3.5 | 0.00 | 0.05 | 0.05 | 88 | 1012.2 |
| 20260507025536 | 66 | 233 | 0.9 | 3.5 | 0.00 | 0.05 | 0.05 | 88 | 1012.2 |
| 20260507025038 | 65 | 233 | 0.0 | 1.7 | 0.00 | 0.05 | 0.05 | 88 | 1012.1 |
| 20260507024552 | 65 | 0 | 0.0 | 1.7 | 0.00 | 0.05 | 0.05 | 88 | 1012.1 |
| 20260507024038 | 65 | 0 | 0.0 | 1.7 | 0.00 | 0.05 | 0.05 | 88 | 1012.5 |
| 20260507023538 | 65 | 169 | 0.9 | 1.7 | 0.00 | 0.05 | 0.05 | 88 | 1012.5 |
| 20260507023045 | 65 | 0 | 0.0 | 2.6 | 0.00 | 0.05 | 0.05 | 88 | 1012.6 |
| 20260507022536 | 65 | 169 | 0.0 | 2.6 | 0.00 | 0.05 | 0.05 | 88 | 1012.7 |
| 20260507022037 | 65 | 0 | 0.0 | 0.9 | 0.00 | 0.05 | 0.05 | 88 | 1012.6 |
| 20260507021551 | 65 | 0 | 0.0 | 1.7 | 0.00 | 0.05 | 0.05 | 88 | 1012.6 |
| 20260507021040 | 65 | 0 | 0.0 | 1.7 | 0.00 | 0.05 | 0.05 | 88 | 1012.6 |
| 20260507020537 | 65 | 0 | 0.0 | 0.0 | 0.00 | 0.05 | 0.05 | 88 | 1012.6 |
| 20260507020051 | 65 | 0 | 0.0 | 0.0 | 0.00 | 0.05 | 0.05 | 87 | 1012.5 |
| 20260507015535 | 65 | 0 | 0.0 | 2.6 | 0.00 | 0.05 | 0.05 | 87 | 1012.7 |
| 20260507015038 | 65 | 0 | 0.0 | 2.6 | 0.00 | 0.05 | 0.05 | 87 | 1012.5 |
| 20260507014550 | 65 | 201 | 0.0 | 2.6 | 0.00 | 0.05 | 0.05 | 87 | 1012.5 |
| 20260507014037 | 66 | 0 | 0.0 | 0.0 | 0.00 | 0.05 | 0.05 | 86 | 1012.4 |
| 20260507013538 | 66 | 0 | 0.0 | 0.0 | 0.00 | 0.05 | 0.05 | 85 | 1012.4 |
| 20260507013057 | 66 | 0 | 0.0 | 0.0 | 0.00 | 0.05 | 0.05 | 85 | 1012.4 |
| 20260507012537 | 66 | 0 | 0.0 | 0.0 | 0.00 | 0.05 | 0.05 | 84 | 1012.6 |
| 20260507012037 | 67 | 0 | 0.0 | 0.0 | 0.00 | 0.05 | 0.05 | 83 | 1012.7 |
| 20260507011546 | 67 | 0 | 0.0 | 0.0 | 0.00 | 0.05 | 0.05 | 83 | 1013.0 |
| 20260507011037 | 67 | 0 | 0.0 | 0.0 | 0.00 | 0.05 | 0.05 | 83 | 1012.8 |
| 20260507010533 | 67 | 0 | 0.0 | 0.0 | 0.00 | 0.05 | 0.05 | 83 | 1012.9 |
| 20260507010045 | 68 | 0 | 0.0 | 0.0 | 0.00 | 0.05 | 0.05 | 82 | 1012.7 |
| 20260507005533 | 68 | 0 | 0.0 | 0.0 | 0.00 | 0.05 | 0.05 | 81 | 1012.7 |
| 20260507005032 | 69 | 0 | 0.0 | 0.0 | 0.00 | 0.05 | 0.05 | 80 | 1012.7 |
| 20260507004542 | 69 | 0 | 0.0 | 0.0 | 0.00 | 0.05 | 0.05 | 79 | 1012.8 |
| 20260507004033 | 69 | 0 | 0.0 | 0.0 | 0.00 | 0.05 | 0.05 | 79 | 1012.7 |
| 20260507003535 | 70 | 0 | 0.0 | 0.0 | 0.00 | 0.05 | 0.05 | 78 | 1012.6 |
| 20260507003042 | 70 | 0 | 0.0 | 0.0 | 0.00 | 0.05 | 0.05 | 77 | 1012.5 |
| 20260507002533 | 70 | 0 | 0.0 | 0.0 | 0.00 | 0.05 | 0.05 | 76 | 1012.6 |
| 20260507002033 | 71 | 0 | 0.0 | 0.0 | 0.00 | 0.05 | 0.05 | 75 | 1012.6 |
| 20260507001549 | 71 | 0 | 0.0 | 0.0 | 0.00 | 0.05 | 0.05 | 75 | 1012.5 |
| 20260507001032 | 71 | 0 | 0.0 | 0.0 | 0.00 | 0.05 | 0.05 | 74 | 1012.7 |
| 20260507000536 | 72 | 0 | 0.0 | 0.0 | 0.00 | 0.05 | 0.05 | 73 | 1012.5 |
| 20260507000040 | 72 | 0 | 0.0 | 0.0 | 0.00 | 0.05 | 0.05 | 73 | 1012.7 |
| 20260506235536 | 72 | 0 | 0.0 | 0.9 | 0.00 | 0.05 | 0.05 | 73 | 1012.4 |
| 20260506235035 | 72 | 0 | 0.0 | 4.3 | 0.00 | 0.05 | 0.05 | 72 | 1012.4 |
| 20260506234541 | 72 | 0 | 0.0 | 4.3 | 0.00 | 0.05 | 0.05 | 72 | 1012.5 |
| 20260506234033 | 73 | 0 | 0.0 | 3.5 | 0.00 | 0.05 | 0.05 | 72 | 1012.2 |
| 20260506233538 | 73 | 311 | 0.9 | 3.5 | 0.00 | 0.05 | 0.05 | 71 | 1012.6 |
| 20260506233046 | 73 | 321 | 0.0 | 4.3 | 0.00 | 0.05 | 0.05 | 71 | 1012.6 |
| 20260506232534 | 73 | 0 | 0.0 | 4.3 | 0.00 | 0.05 | 0.05 | 71 | 1012.5 |
| 20260506232034 | 73 | 312 | 0.0 | 3.5 | 0.00 | 0.05 | 0.05 | 71 | 1012.5 |
| 20260506231545 | 73 | 309 | 0.9 | 7.8 | 0.00 | 0.05 | 0.05 | 71 | 1012.3 |
| 20260506231031 | 73 | 269 | 0.9 | 7.8 | 0.00 | 0.05 | 0.05 | 71 | 1012.3 |
| 20260506230531 | 73 | 294 | 0.9 | 7.8 | 0.00 | 0.05 | 0.05 | 71 | 1012.3 |
| 20260506230043 | 73 | 248 | 0.9 | 7.8 | 0.00 | 0.05 | 0.05 | 71 | 1012.3 |
| 20260506225535 | 73 | 337 | 0.9 | 10.4 | 0.00 | 0.05 | 0.05 | 71 | 1012.3 |
| 20260506225035 | 73 | 138 | 1.7 | 10.4 | 0.00 | 0.05 | 0.05 | 70 | 1012.3 |
| 20260506224601 | 73 | 0 | 1.7 | 10.4 | 0.00 | 0.05 | 0.05 | 70 | 1012.1 |
| 20260506224037 | 73 | 129 | 2.6 | 7.0 | 0.00 | 0.05 | 0.05 | 70 | 1012.1 |
| 20260506223534 | 73 | 59 | 2.6 | 7.0 | 0.00 | 0.05 | 0.05 | 71 | 1012.2 |
| 20260506223038 | 73 | 272 | 0.9 | 7.0 | 0.00 | 0.05 | 0.05 | 71 | 1012.1 |
| 20260506222537 | 73 | 119 | 1.7 | 7.8 | 0.00 | 0.05 | 0.05 | 71 | 1012.2 |
| 20260506222034 | 73 | 124 | 3.5 | 10.4 | 0.00 | 0.05 | 0.05 | 72 | 1012.2 |
| 20260506221547 | 73 | 165 | 2.6 | 10.4 | 0.00 | 0.05 | 0.05 | 72 | 1012.4 |
| 20260506221035 | 73 | 275 | 2.6 | 6.1 | 0.00 | 0.05 | 0.05 | 73 | 1012.4 |
| 20260506220532 | 73 | 65 | 1.7 | 6.1 | 0.00 | 0.05 | 0.05 | 73 | 1012.4 |
| 20260506220046 | 73 | 258 | 0.9 | 6.1 | 0.00 | 0.05 | 0.05 | 73 | 1012.3 |
| 20260506215536 | 73 | 319 | 1.7 | 7.0 | 0.00 | 0.05 | 0.05 | 73 | 1012.4 |
| 20260506215035 | 73 | 341 | 0.9 | 7.0 | 0.00 | 0.05 | 0.05 | 74 | 1012.5 |
| 20260506214607 | 72 | 302 | 1.7 | 7.0 | 0.00 | 0.05 | 0.05 | 74 | 1012.4 |
| 20260506214032 | 72 | 282 | 2.6 | 7.0 | 0.00 | 0.05 | 0.05 | 74 | 1012.3 |
| 20260506213531 | 72 | 280 | 1.7 | 8.7 | 0.00 | 0.05 | 0.05 | 75 | 1012.2 |
| 20260506213051 | 72 | 307 | 1.7 | 8.7 | 0.00 | 0.05 | 0.05 | 75 | 1012.1 |
| 20260506212532 | 72 | 142 | 0.9 | 7.0 | 0.00 | 0.05 | 0.05 | 76 | 1012.1 |
| 20260506212034 | 71 | 137 | 0.9 | 7.8 | 0.00 | 0.05 | 0.05 | 76 | 1012.1 |
| 20260506211539 | 71 | 126 | 2.6 | 7.8 | 0.00 | 0.05 | 0.05 | 76 | 1012.0 |
| 20260506211035 | 71 | 167 | 0.9 | 5.2 | 0.00 | 0.05 | 0.05 | 75 | 1012.2 |
| 20260506210535 | 71 | 319 | 0.9 | 5.2 | 0.00 | 0.05 | 0.05 | 75 | 1012.3 |
| 20260506210051 | 71 | 317 | 1.7 | 4.3 | 0.00 | 0.05 | 0.05 | 75 | 1012.4 |
| 20260506205532 | 71 | 0 | 0.9 | 3.5 | 0.00 | 0.05 | 0.05 | 75 | 1012.3 |
| 20260506205034 | 71 | 248 | 0.0 | 3.5 | 0.00 | 0.05 | 0.05 | 75 | 1012.2 |
| 20260506204546 | 71 | 0 | 1.7 | 3.5 | 0.00 | 0.05 | 0.05 | 75 | 1012.2 |
| 20260506204032 | 71 | 311 | 1.7 | 3.5 | 0.00 | 0.05 | 0.05 | 75 | 1012.1 |
| 20260506203535 | 71 | 315 | 0.9 | 7.0 | 0.00 | 0.05 | 0.05 | 75 | 1012.0 |
| 20260506203051 | 71 | 300 | 0.0 | 7.0 | 0.00 | 0.05 | 0.05 | 75 | 1012.0 |
| 20260506202536 | 71 | 320 | 1.7 | 7.0 | 0.00 | 0.05 | 0.05 | 75 | 1011.9 |
| 20260506202032 | 71 | 303 | 0.0 | 6.1 | 0.00 | 0.05 | 0.05 | 75 | 1011.9 |
| 20260506201546 | 71 | 0 | 0.9 | 8.7 | 0.00 | 0.05 | 0.05 | 75 | 1011.8 |
| 20260506201033 | 70 | 138 | 2.6 | 8.7 | 0.00 | 0.05 | 0.05 | 75 | 1012.0 |
| 20260506200535 | 70 | 306 | 1.7 | 7.8 | 0.00 | 0.05 | 0.05 | 75 | 1012.3 |
| 20260506200043 | 70 | 310 | 2.6 | 11.3 | 0.00 | 0.05 | 0.05 | 75 | 1012.4 |
| 20260506195532 | 70 | 348 | 4.3 | 11.3 | 0.00 | 0.05 | 0.05 | 75 | 1012.6 |
| 20260506195032 | 70 | 325 | 3.5 | 8.7 | 0.00 | 0.05 | 0.05 | 75 | 1012.2 |
| 20260506194601 | 70 | 220 | 1.7 | 9.6 | 0.00 | 0.05 | 0.05 | 75 | 1011.8 |
| 20260506194035 | 70 | 0 | 4.3 | 10.4 | 0.00 | 0.05 | 0.05 | 75 | 1012.2 |
| 20260506193533 | 70 | 157 | 4.3 | 10.4 | 0.00 | 0.05 | 0.05 | 75 | 1012.0 |
| 20260506193039 | 70 | 130 | 2.6 | 8.7 | 0.00 | 0.05 | 0.05 | 76 | 1012.2 |
| 20260506192533 | 70 | 263 | 1.7 | 9.6 | 0.00 | 0.05 | 0.05 | 76 | 1012.6 |
| 20260506192035 | 70 | 113 | 1.7 | 9.6 | 0.00 | 0.05 | 0.05 | 76 | 1012.9 |
| 20260506191551 | 70 | 80 | 1.7 | 7.8 | 0.00 | 0.05 | 0.05 | 76 | 1012.5 |
| 20260506191033 | 70 | 0 | 1.7 | 6.1 | 0.00 | 0.05 | 0.05 | 77 | 1012.9 |
| 20260506190538 | 69 | 252 | 1.7 | 6.1 | 0.00 | 0.05 | 0.05 | 77 | 1013.2 |
| 20260506190045 | 69 | 317 | 2.6 | 11.3 | 0.00 | 0.05 | 0.05 | 76 | 1013.3 |
| 20260506185535 | 69 | 249 | 2.6 | 11.3 | 0.00 | 0.05 | 0.05 | 77 | 1013.3 |
| 20260506185035 | 69 | 68 | 0.9 | 9.6 | 0.00 | 0.05 | 0.05 | 78 | 1013.2 |
| 20260506184543 | 69 | 113 | 2.6 | 10.4 | 0.00 | 0.05 | 0.05 | 78 | 1013.3 |
| 20260506184035 | 69 | 99 | 3.5 | 10.4 | 0.00 | 0.05 | 0.05 | 78 | 1013.3 |
| 20260506183535 | 68 | 158 | 1.7 | 7.8 | 0.00 | 0.05 | 0.05 | 79 | 1013.1 |
| 20260506183047 | 68 | 271 | 1.7 | 7.8 | 0.00 | 0.05 | 0.05 | 80 | 1013.3 |
| 20260506182535 | 68 | 101 | 2.6 | 7.8 | 0.00 | 0.05 | 0.05 | 80 | 1013.5 |
| 20260506182035 | 68 | 67 | 1.7 | 8.7 | 0.00 | 0.05 | 0.05 | 80 | 1013.7 |
| 20260506181544 | 68 | 140 | 2.6 | 12.2 | 0.01 | 0.05 | 0.05 | 80 | 1013.7 |
| 20260506181035 | 68 | 123 | 1.7 | 12.2 | 0.01 | 0.05 | 0.05 | 80 | 1013.7 |
| 20260506180535 | 68 | 38 | 2.6 | 12.2 | 0.01 | 0.05 | 0.05 | 80 | 1013.6 |
| 20260506180051 | 68 | 340 | 1.7 | 7.8 | 0.01 | 0.05 | 0.05 | 80 | 1013.7 |
| 20260506175536 | 68 | 69 | 2.6 | 7.8 | 0.01 | 0.05 | 0.05 | 81 | 1013.7 |
| 20260506175034 | 68 | 194 | 0.9 | 7.8 | 0.01 | 0.05 | 0.05 | 81 | 1013.8 |
| 20260506174544 | 68 | 148 | 3.5 | 7.8 | 0.01 | 0.05 | 0.05 | 82 | 1013.9 |
| 20260506174032 | 68 | 157 | 1.7 | 7.8 | 0.01 | 0.05 | 0.05 | 83 | 1014.0 |
| 20260506173539 | 67 | 319 | 2.6 | 8.7 | 0.01 | 0.05 | 0.05 | 83 | 1013.9 |
| 20260506173048 | 67 | 182 | 2.6 | 9.6 | 0.01 | 0.05 | 0.05 | 84 | 1014.0 |
| 20260506172532 | 67 | 34 | 4.3 | 9.6 | 0.01 | 0.05 | 0.05 | 85 | 1013.9 |
| 20260506172036 | 67 | 111 | 2.6 | 11.3 | 0.01 | 0.05 | 0.05 | 86 | 1013.8 |
| 20260506171553 | 66 | 96 | 3.5 | 11.3 | 0.00 | 0.04 | 0.04 | 86 | 1013.8 |
| 20260506171035 | 66 | 150 | 3.5 | 12.2 | 0.00 | 0.04 | 0.04 | 86 | 1013.9 |
| 20260506170535 | 66 | 165 | 2.6 | 12.2 | 0.00 | 0.04 | 0.04 | 86 | 1014.1 |
| 20260506170052 | 66 | 158 | 4.3 | 11.3 | 0.01 | 0.04 | 0.04 | 86 | 1014.2 |
| 20260506165534 | 65 | 85 | 1.7 | 9.6 | 0.01 | 0.04 | 0.04 | 86 | 1014.4 |
| 20260506165035 | 65 | 147 | 2.6 | 9.6 | 0.02 | 0.04 | 0.04 | 87 | 1014.3 |
| 20260506164540 | 65 | 113 | 0.9 | 10.4 | 0.02 | 0.04 | 0.04 | 87 | 1014.5 |
| 20260506164034 | 65 | 130 | 2.6 | 10.4 | 0.03 | 0.04 | 0.04 | 87 | 1014.4 |
| 20260506163532 | 65 | 127 | 1.7 | 5.2 | 0.03 | 0.04 | 0.04 | 86 | 1014.6 |
| 20260506163049 | 65 | 134 | 1.7 | 5.2 | 0.03 | 0.04 | 0.04 | 86 | 1014.7 |
| 20260506162536 | 65 | 109 | 1.7 | 7.8 | 0.04 | 0.04 | 0.04 | 86 | 1014.8 |
| 20260506162033 | 65 | 134 | 1.7 | 8.7 | 0.04 | 0.04 | 0.04 | 85 | 1015.0 |
| 20260506161545 | 65 | 236 | 2.6 | 8.7 | 0.04 | 0.04 | 0.04 | 85 | 1015.0 |
| 20260506161034 | 65 | 165 | 2.6 | 7.8 | 0.04 | 0.04 | 0.04 | 84 | 1015.1 |
| 20260506160532 | 66 | 115 | 2.6 | 7.0 | 0.04 | 0.04 | 0.04 | 84 | 1015.1 |
| 20260506160047 | 66 | 280 | 2.6 | 7.0 | 0.03 | 0.03 | 0.03 | 83 | 1015.1 |
| 20260506155532 | 66 | 129 | 3.5 | 7.0 | 0.03 | 0.03 | 0.03 | 82 | 1015.3 |
| 20260506155034 | 66 | 160 | 1.7 | 7.0 | 0.02 | 0.02 | 0.02 | 81 | 1015.6 |
| 20260506154601 | 67 | 134 | 1.7 | 5.2 | 0.02 | 0.02 | 0.02 | 80 | 1015.6 |
| 20260506154032 | 67 | 254 | 0.9 | 5.2 | 0.01 | 0.01 | 0.01 | 78 | 1015.7 |
| 20260506153534 | 68 | 121 | 1.7 | 9.6 | 0.01 | 0.01 | 0.01 | 77 | 1015.8 |
| 20260506153048 | 68 | 265 | 1.7 | 11.3 | 0.01 | 0.01 | 0.01 | 76 | 1015.7 |
| 20260506152532 | 69 | 302 | 1.7 | 11.3 | 0.00 | 0.00 | 0.00 | 74 | 1015.8 |
| 20260506152036 | 69 | 199 | 3.5 | 11.3 | 0.00 | 0.00 | 0.00 | 72 | 1015.7 |
| 20260506151540 | 69 | 283 | 2.6 | 12.2 | 0.00 | 0.00 | 0.00 | 71 | 1015.8 |
| 20260506151035 | 69 | 142 | 4.3 | 12.2 | 0.00 | 0.00 | 0.00 | 70 | 1015.8 |
| 20260506150535 | 69 | 316 | 2.6 | 12.2 | 0.00 | 0.00 | 0.00 | 70 | 1015.8 |
| 20260506150052 | 69 | 0 | 2.6 | 8.7 | 0.00 | 0.00 | 0.00 | 70 | 1015.8 |
| 20260506145538 | 69 | 72 | 1.7 | 11.3 | 0.00 | 0.00 | 0.00 | 71 | 1015.7 |
| 20260506145032 | 69 | 309 | 3.5 | 11.3 | 0.00 | 0.00 | 0.00 | 70 | 1015.6 |
| 20260506144555 | 69 | 121 | 3.5 | 11.3 | 0.00 | 0.00 | 0.00 | 70 | 1015.5 |
| 20260506144033 | 69 | 155 | 2.6 | 8.7 | 0.00 | 0.00 | 0.00 | 69 | 1015.5 |
| 20260506143533 | 69 | 174 | 2.6 | 13.0 | 0.00 | 0.00 | 0.00 | 70 | 1015.5 |
| 20260506143044 | 69 | 145 | 3.5 | 13.0 | 0.00 | 0.00 | 0.00 | 69 | 1015.5 |
| 20260506142538 | 69 | 139 | 2.6 | 8.7 | 0.00 | 0.00 | 0.00 | 70 | 1015.4 |
| 20260506142035 | 69 | 138 | 3.5 | 8.7 | 0.00 | 0.00 | 0.00 | 69 | 1015.5 |
| 20260506141549 | 69 | 236 | 2.6 | 8.7 | 0.00 | 0.00 | 0.00 | 69 | 1015.3 |
| 20260506141035 | 69 | 66 | 2.6 | 8.7 | 0.00 | 0.00 | 0.00 | 68 | 1015.3 |
| 20260506140537 | 69 | 186 | 1.7 | 9.6 | 0.00 | 0.00 | 0.00 | 69 | 1015.4 |
| 20260506140058 | 69 | 341 | 1.7 | 10.4 | 0.00 | 0.00 | 0.00 | 69 | 1015.4 |
| 20260506135534 | 69 | 287 | 3.5 | 10.4 | 0.00 | 0.00 | 0.00 | 69 | 1015.2 |
| 20260506135035 | 69 | 63 | 3.5 | 10.4 | 0.00 | 0.00 | 0.00 | 69 | 1015.3 |
| 20260506134546 | 69 | 51 | 1.7 | 9.6 | 0.00 | 0.00 | 0.00 | 69 | 1015.4 |
| 20260506134035 | 69 | 346 | 4.3 | 13.9 | 0.00 | 0.00 | 0.00 | 69 | 1015.3 |
| 20260506133535 | 69 | 331 | 2.6 | 13.9 | 0.00 | 0.00 | 0.00 | 70 | 1015.3 |
| 20260506133052 | 69 | 147 | 4.3 | 12.2 | 0.00 | 0.00 | 0.00 | 70 | 1015.3 |
| 20260506132534 | 69 | 96 | 2.6 | 12.2 | 0.00 | 0.00 | 0.00 | 70 | 1015.2 |
| 20260506132037 | 69 | 105 | 4.3 | 11.3 | 0.00 | 0.00 | 0.00 | 71 | 1015.3 |
| 20260506131545 | 69 | 125 | 6.1 | 11.3 | 0.00 | 0.00 | 0.00 | 71 | 1015.2 |
| 20260506131035 | 68 | 196 | 5.2 | 15.6 | 0.00 | 0.00 | 0.00 | 72 | 1015.4 |
| 20260506130534 | 68 | 130 | 6.1 | 15.6 | 0.00 | 0.00 | 0.00 | 71 | 1015.3 |
| 20260506130045 | 68 | 288 | 3.5 | 13.9 | 0.00 | 0.00 | 0.00 | 72 | 1015.4 |
| 20260506125534 | 68 | 269 | 4.3 | 13.0 | 0.00 | 0.00 | 0.00 | 72 | 1015.4 |
| 20260506125032 | 68 | 146 | 4.3 | 11.3 | 0.00 | 0.00 | 0.00 | 73 | 1015.3 |
| 20260506124541 | 67 | 185 | 3.5 | 13.0 | 0.00 | 0.00 | 0.00 | 72 | 1015.4 |
| 20260506124036 | 67 | 174 | 3.5 | 14.8 | 0.00 | 0.00 | 0.00 | 73 | 1015.3 |
| 20260506123537 | 67 | 169 | 4.3 | 14.8 | 0.00 | 0.00 | 0.00 | 72 | 1015.4 |
| 20260506123041 | 67 | 148 | 2.6 | 9.6 | 0.00 | 0.00 | 0.00 | 72 | 1015.3 |
| 20260506122535 | 67 | 130 | 2.6 | 9.6 | 0.00 | 0.00 | 0.00 | 72 | 1015.4 |
| 20260506122031 | 67 | 161 | 3.5 | 8.7 | 0.00 | 0.00 | 0.00 | 73 | 1015.6 |
| 20260506121540 | 67 | 327 | 1.7 | 9.6 | 0.00 | 0.00 | 0.00 | 72 | 1015.6 |
| 20260506121034 | 67 | 95 | 2.6 | 9.6 | 0.00 | 0.00 | 0.00 | 72 | 1015.7 |
| 20260506120537 | 67 | 166 | 2.6 | 9.6 | 0.00 | 0.00 | 0.00 | 72 | 1015.8 |
| 20260506120049 | 67 | 180 | 3.5 | 8.7 | 0.00 | 0.00 | 0.00 | 73 | 1015.7 |
| 20260506115536 | 67 | 303 | 2.6 | 10.4 | 0.00 | 0.00 | 0.00 | 73 | 1015.6 |
| 20260506115035 | 66 | 346 | 0.9 | 10.4 | 0.00 | 0.00 | 0.00 | 73 | 1015.6 |
| 20260506114540 | 66 | 184 | 3.5 | 10.4 | 0.00 | 0.00 | 0.00 | 73 | 1015.7 |
| 20260506114032 | 66 | 128 | 2.6 | 10.4 | 0.00 | 0.00 | 0.00 | 73 | 1015.6 |
| 20260506113535 | 66 | 148 | 2.6 | 9.6 | 0.00 | 0.00 | 0.00 | 73 | 1015.5 |
| 20260506113051 | 66 | 125 | 2.6 | 9.6 | 0.00 | 0.00 | 0.00 | 73 | 1015.5 |
| 20260506112532 | 66 | 173 | 4.3 | 13.0 | 0.00 | 0.00 | 0.00 | 73 | 1015.5 |
| 20260506112035 | 65 | 159 | 6.1 | 13.0 | 0.00 | 0.00 | 0.00 | 73 | 1015.4 |
| 20260506111551 | 65 | 144 | 2.6 | 10.4 | 0.00 | 0.00 | 0.00 | 74 | 1015.2 |
| 20260506111037 | 65 | 117 | 2.6 | 10.4 | 0.00 | 0.00 | 0.00 | 73 | 1015.3 |
| 20260506110536 | 65 | 131 | 2.6 | 10.4 | 0.00 | 0.00 | 0.00 | 73 | 1015.2 |
| 20260506110046 | 65 | 143 | 2.6 | 10.4 | 0.00 | 0.00 | 0.00 | 74 | 1015.2 |
| 20260506105536 | 65 | 173 | 4.3 | 9.6 | 0.00 | 0.00 | 0.00 | 73 | 1015.3 |
| 20260506105036 | 65 | 119 | 4.3 | 9.6 | 0.00 | 0.00 | 0.00 | 73 | 1015.3 |
| 20260506104554 | 65 | 119 | 3.5 | 11.3 | 0.00 | 0.00 | 0.00 | 73 | 1015.2 |
| 20260506104036 | 65 | 171 | 3.5 | 11.3 | 0.00 | 0.00 | 0.00 | 73 | 1015.2 |
| 20260506103535 | 65 | 108 | 3.5 | 7.0 | 0.00 | 0.00 | 0.00 | 73 | 1015.3 |
| 20260506103044 | 65 | 0 | 1.7 | 12.2 | 0.00 | 0.00 | 0.00 | 73 | 1015.3 |
| 20260506102535 | 65 | 152 | 3.5 | 12.2 | 0.00 | 0.00 | 0.00 | 73 | 1015.2 |
| 20260506102035 | 65 | 143 | 3.5 | 11.3 | 0.00 | 0.00 | 0.00 | 72 | 1015.2 |
| 20260506101548 | 65 | 167 | 2.6 | 8.7 | 0.00 | 0.00 | 0.00 | 72 | 1015.3 |